Powrót do katalogu

COSMOS 1828

AktywnyMilitariaPO
NORAD 17583·PAYLOAD·🇷🇺 Russia

Wystrzelony Mar 13, 1987 z Plesetsk Cosmodrome

Loading…

Następne Przeloty (najbliższe 24 godziny)

TLE

ŚwieżeSource: Space-Track

Epoka: Sep 14, 2026, 20:38 UTC

1 17583U 87026B   26257.85979939  .00000013  00000-0  14383-4 0  9995
2 17583  82.5627 108.2650 0018127 225.4930 164.7742 12.66270579825890

Śledź COSMOS 1828 w czasie rzeczywistym z AllMySat

Download on the App Store